Regional Weather Roundup
Issued by NWS

Home | Current Version | Previous Version | Text Only | Print | Product List | Glossary On
Versions: 1 2 3 4 5 6 7 8 9 10 11 12 13 14 15 16 17 18 19 20 21 22 23 24 25 26 27 28 29 30 31 32 33 34 35 36 37 38 39 40 41 42 43 44 45 46 47 48 49 50
000
ASUS43 KMKX 191711
RWRWI

WISCONSIN REGIONAL WEATHER ROUNDUP
NATIONAL WEATHER SERVICE MILWAUKEE/SULLIVAN WI
1200 PM CDT THU OCT 19 2017

NOTE: "FAIR" INDICATES FEW OR NO CLOUDS BELOW 12,000 FEET WITH NO
SIGNIFICANT WEATHER AND/OR OBSTRUCTIONS TO VISIBILITY.

WIZ001-002-006>008-014>016-023>028-191800-
NORTHWEST WISCONSIN

CITY           SKY/WX    TMP DP  RH WIND       PRES   REMARKS
SUPERIOR ARPT  SUNNY     61  33  35 SW10      30.02S
ASHLAND        SUNNY     61  28  28 SW8       30.04S
HAYWARD        SUNNY     61  29  29 SW6       30.07R
SIREN          SUNNY     63  27  26 S8        30.06S
CUMBERLAND     SUNNY     61  32  33 SW8       30.09R
RICE LAKE      SUNNY     62  28  27 S10       30.11R
CHETEK         SUNNY     62  32  32 SW7       30.10R
LADYSMITH      SUNNY     60  32  34 CALM      30.11S
EAU CLAIRE     SUNNY     61  35  37 SW6       30.10F
MENOMONIE      SUNNY     63  34  33 S7        30.10S
NEW RICHMOND   SUNNY     63  30  28 S7        30.07F
OSCEOLA        SUNNY     63  31  30 S9        30.10F
$$

WIZ003>005-009-010-017-018-191800-
NORTH CENTRAL WISCONSIN

CITY           SKY/WX    TMP DP  RH WIND       PRES   REMARKS
MANITOWISH WTR SUNNY     58  28  32 W8        30.07R
ARBOR VITAE    SUNNY     59  27  29 W12       30.07R
WOODRUFF       SUNNY     59  27  29 W12       30.07R
RHINELANDER    SUNNY     60  27  28 W14G21    30.09S
EAGLE RIVER    SUNNY     58  23  25 W10G17    30.06S
LAND O LAKES   SUNNY     58  21  23 W9        30.07S
PHILLIPS       SUNNY     58  28  31 W6        30.09R
TOMAHAWK       SUNNY     59  25  26 W12       30.09S
MEDFORD        CLOUDY    58  30  34 SW6       30.11S
MERRILL        CLOUDY    61  29  30 W12       30.10F
$$

WIZ029-030-035-036-043>047-191800-
CENTRAL WISCONSIN

CITY           SKY/WX    TMP DP  RH WIND       PRES   REMARKS
WAUSAU         CLOUDY    60  29  30 SW12      30.10S
MOSINEE        MOSUNNY   61  30  31 SW8       30.14R
MARSHFIELD     CLOUDY    62  30  29 SW8       30.12S
STEVENS POINT  CLOUDY    60  28  29 W8        30.14S
WAUPACA        SUNNY     66  27  23 SW8       30.14S
WAUTOMA        CLOUDY    64  30  27 SW8       30.15S
WISC RAPIDS    CLOUDY    63  34  33 SW9       30.15S
CAMP DOUGLAS   PTSUNNY   64  34  32 S5        30.14S
$$

WIZ011>013-019>022-031-037>040-048>050-191800-
NORTHEAST WISCONSIN

CITY           SKY/WX    TMP DP  RH WIND       PRES   REMARKS
ANTIGO         CLOUDY    58  31  35 W12       30.10S
SHAWANO        SUNNY     64  30  27 W6        30.11S
OCONTO         MOSUNNY   61  29  30 W14G21    30.09S
STURGEON BAY   CLOUDY    59  30  33 SW15      30.10R
GREEN BAY      SUNNY     63  30  28 W10       30.13R
MANITOWOC      SUNNY     62  29  28 W13       30.14R
APPLETON       MOSUNNY   63  25  23 W8        30.12S
CLINTONVILLE   SUNNY     63  25  23 W10       30.12S
OSHKOSH        CLOUDY    62  30  29 VRB6      30.15R
$$

WIZ032>034-041-042-053>061-191800-
SOUTHWEST WISCONSIN

CITY           SKY/WX    TMP DP  RH WIND       PRES   REMARKS
LA CROSSE      CLOUDY    62  36  37 S9        30.13S
SPARTA         CLOUDY    64  31  29 E3        30.14S
VIROQUA        CLOUDY    64  33  32 SE7       30.16R
BOSCOBEL       SUNNY     67  36  31 CALM      30.17S
PRAIRIE DU CHI SUNNY     62  36  37 SW5       30.16S
PLATTEVILLE    SUNNY     65  31  27 SE3       30.18S
$$

WIZ056-057-062-063-064-067-068-191800-
SOUTH CENTRAL WISCONSIN

CITY           SKY/WX    TMP DP  RH WIND       PRES   REMARKS
REEDSBURG      CLOUDY    64  32  30 CALM      30.16S
BARABOO/DELLS  CLOUDY    63  28  26 CALM      30.16S
LONE ROCK      MOSUNNY   63  38  39 CALM      30.17S
MINERAL POINT  CLOUDY    66  30  26 CALM      30.18S
MADISON        PTSUNNY   65  29  25 NW3       30.17S
MIDDLETON      MOSUNNY   66  27  23 CALM      30.18R
WATERTOWN      SUNNY     65  32  29 NW5       30.17R
MONROE         SUNNY     63  27  25 CALM      30.18S
JANESVILLE     MOSUNNY   66  32  28 E3        30.18R
$$

WIZ051-052-058>065-066-070>072-191800-
SOUTHEAST WISCONSIN

CITY           SKY/WX    TMP DP  RH WIND       PRES   REMARKS
MILWAUKEE      PTSUNNY   66  27  23 VRB6      30.18R
WAUKESHA       SUNNY     61  28  29 NW5       30.18S
MILWAUKEE/TIMM SUNNY     64  21  19 NW8       30.18R
RACINE         SUNNY     65  25  22 NW3       30.20R
BURLINGTON     SUNNY     65  29  26 N5        30.19R
KENOSHA        SUNNY     65  25  22 N6        30.19R
FOND DU LAC    CLOUDY    63  27  25 W10       30.16S
SHEBOYGAN      MOSUNNY   63  28  26 W10       30.15R
WEST BEND      CLOUDY    63  27  25 NW8       30.17S
JUNEAU         CLOUDY    62  28  27 NW5       30.18S
$$

LSZ147-162-191800-
LAKE SUPERIOR

STATION/POSITION TIME  TEMP    WIND        PRES    WAVE
                       AIR SEA DIR/SP/G            HT/PER
                 (UTC) (F)     (DEG/KT/KT) (MB)    (FT/S)
W MID LAKE BUOY  1650   53 52              1015.0R   6/ 6
DEVILS ISLAND    1700   54     230/ 18/ 20 1016.4R
SAXON HARBOR     1640   61     220/  7/ 14 1016.9R
$$

LMZ867-665-643>646-191800-
LAKE MICHIGAN

STATION/POSITION TIME  TEMP    WIND        PRES    WAVE
                       AIR SEA DIR/SP/G            HT/PER
                 (UTC) (F)     (DEG/KT/KT) (MB)    (FT/S)
S GREEN BAY BUOY 1700   58 58  240/ 12/ 16 1019.1R
N MID LAKE BUOY  1650   56 58  250/ 19/ 23 1017.7R   5/ 6
NORTHPORT PIER   1640   60     250/  8/ 14 1017.9R
KEWAUNEE LAKESHO 1648   60     280/ 10/ 13 1018.9R
SHEBOYGAN LAKESH 1700   61     290/ 10/ 12 1020.7R
PORT WASHINGTON  1640   64     300/  5/ 10 1022.0S
ATWATER BUOY     1509   57 53  290/  2/  2 1021.5R
MILWAUKEE LAKESH 1650   63     270/  5/  6   N/A
S MID LAKE BUOY  1650   58 61  310/  8/  8 1022.6R   2/ 5
KENOSHA   LAKESH 1700   61     150/  7/  8 1022.0
$$

TC  - TEMPERATURE IN CELSIUS
VSB - VISIBILITY IN STATUTE MILES
WCI - WIND CHILL INDEX
HX  - HEAT INDEX





USA.gov is the U.S. government's official web portal to all federal, state and local government web resources and services.